AirNav   Air Wisconsin Up To $57,000 Bonus
 
 975 users online  

7MY9 Petes Airport
Dexter, Minnesota, USA

GOING TO DEXTER?


FAA INFORMATION EFFECTIVE 03 NOVEMBER 2022

Location

FAA Identifier: 7MY9
Lat/Long: 43-44-48.1800N 092-43-28.2000W
43-44.803000N 092-43.470000W
43.7467167,-92.7245000
(estimated)
Elevation: 1337 ft. / 408 m (estimated)
From city: 2 miles NW of DEXTER, MN
Time zone: UTC -6 (UTC -5 during Daylight Saving Time)
Zip code: 55926

Airport Operations

Airport use: Private use. Permission required prior to landing
Activation date: 10/2009
Control tower: no
ARTCC: MINNEAPOLIS CENTER
FSS: PRINCETON FLIGHT SERVICE STATION
Attendance: UNATNDD
Segmented circle: no

Airport Communications

CTAF: 122.9
WX AWOS-3 at AUM (10 nm SW): 119.025 (507-433-6667)
WX ASOS at RST (14 nm NE): PHONE 507-424-8146
WX AWOS-3 at TOB (17 nm N): 119.075 (507-374-6369)

Nearby radio navigation aids

VOR radial/distance  VOR name  Freq  Var
RSTr244/5.9ROCHESTER VOR/DME112.0005E
JAYr039/13.3AUSTIN VOR/DME108.2000E
AELr081/28.3ALBERT LEA VOR/DME109.8001E
FOWr133/39.1HALFWAY VOR/DME111.2002E

Airport Services

Runway Information

Runway 9/27

Dimensions: 2600 x 95 ft. / 792 x 29 m
Surface: turf
RUNWAY 9  RUNWAY 27
Traffic pattern: leftleft

Airport Ownership and Management from official FAA records

Ownership: Privately-owned
Owner: WAYNE PETERSON
26887 665TH AVE
DEXTER, MN 55926-7244
Phone 507-279-3294
Manager: WAYNE PETERSON
26887 665TH AVE
DEXTER, MN 55926-7244
Phone 507-279-3294

Airport Operational Statistics

Aircraft based on the field: 1
Single engine airplanes: 1
    

Additional Remarks

DO NOT CHART PER MN DOT.
FOR CD CTC MINNEAPOLIS ARTCC AT 651-463-5588.
CLSD DURG WINTER.

Instrument Procedures

There are no published instrument procedures at 7MY9.

Some nearby airports with instrument procedures:

KAUM - Austin Municipal Airport (10 nm SW)
KRST - Rochester International Airport (14 nm NE)
KTOB - Dodge Center Airport (17 nm N)
KFKA - Fillmore County Airport (24 nm E)
KAEL - Albert Lea Municipal Airport (28 nm W)
 
Loc | Ops | Rwys | IFR | FBO | Links
Com | Nav | Svcs | Stats | Notes
Aerial photo
No photo
 
Sectional chart

 
Airport distance calculator
Flying to Petes Airport? Find the distance to fly.

From to 7MY9

Sunrise and sunset
Times for 26-Nov-2022
 Local
(UTC-6)
 Zulu
(UTC)
Morning civil twilight06:4812:48
Sunrise07:2013:20
Sunset16:3622:36
Evening civil twilight17:0823:08

Current date and time
Zulu (UTC)  26-Nov-2022 15:18:12
Local (UTC-6)  26-Nov-2022 09:18:12
 
METAR
KAUM 
10nm SW 
261457Z AUTO 19010KT 10SM CLR 02/M02 A2983 RMK AO2
KRST 
13nm NE 
261454Z 20015KT 10SM CLR 03/M03 A2982 RMK AO2 SLP109 T00281028 58021 $
KTOB 
17nm N 
261455Z AUTO 19011KT 10SM CLR 03/M03 A2980 RMK AO2
K9MN 
19nm NE 
261455Z AUTO 17009G15KT 140V220 10SM CLR 05/M04 A2982 RMK AO1 T00471042
TAF
KRST 
13nm NE 
261122Z 2612/2712 20015KT P6SM SKC WS020/24040KT FM261600 21018G30KT P6SM SCT250 FM262300 22012KT P6SM BKN120 FM270800 34012KT P6SM BKN025
NOTAMs
Click for the latest NOTAMs
NOTAMs are issued by the DoD/FAA and will open in a separate window not controlled by AirNav.

 

 
 

Would you like to see your business listed on this page?

 If your business provides an interesting product or service to pilots, flight crews, aircraft, or users of the Petes Airport, you should consider listing it here.  To start the listing process, click on the button below
 
Add a business
 

Other Pages about Petes Airport

Update a link
 
Copyright © AirNav, LLC. All rights reserved. Privacy Policy  Contact